User: anonymous   Login
Location: Barnston
(51.8500°N, 0.4000°E)
Time: 03:28:52
(UTC+00:00)
Language:

Cosmos 1048 Rocket - Orbit

View from above orbital plane
View from above orbital plane
View from above satellite
View from above satellite

Ground track
Ground track

The orbit data is extracted from the following two-line orbital elements,

1 11112U 78105B   24062.84873354  .00000338  00000-0  11999-3 0  9999
2 11112  74.0329 336.1817 0034670 256.5162 103.2127 14.37886815371850
Epoch (UTC): 02 March 2024 20:22:10
Eccentricity: 0.0034670
inclination: 74.0329°
perigee height: 741 km
apogee height: 790 km
right ascension of ascending node: 336.1817°
argument of perigee: 256.5162°
revolutions per day: 14.37886815
mean anomaly at epoch: 103.2127°
orbit number at epoch: 37185

The dashed part of the orbit path shows where the satellite is in the earth's shadow,  

DLR